GFSWCAN_prec_radar_282.txt.gz
Reflectivity
-18 -3 19 -7 5 -20 -20 -20 6 1 13 -2 11 -3 -7 -20 -20 16 9 -7 22 22 1 13 0 -13 -20 -20 -19 12 16 12 8 7 8 -17 -18 -19 -5 -19 -10 11 18 4 15 6 -20 -20 -20 -20 -20 -20 -20 -20
3 -20 -20 24 14 15 -20 -13 21 -9 5 8 13 -3 -9 -7 -20 -20 4 2 18 33 31 -5 -17 -17 -4 -7 8 17 3 -4 12 10 11 11 1 0 -14 -2 -5 12 12 13 7 -12 4 -18 -20 -20 -20 -20 -20 -20
1 17 18 -13 20 13 -11 -11 -20 -20 -20 -20 15 -8 1 15 8 17 15 -20 23 7 26 -1 -7 -20 -9 -4 -4 18 20 -12 8 17 14 13 4 -10 -19 -11 -7 6 17 13 11 6 2 -20 -20 -20 -20 -20 -20 -20
16 18 -15 -20 -11 -16 -3 -20 -20 -20 -20 2 11 1 -10 -20 21 21 -20 -7 25 14 31 7 18 16 -20 -20 9 14 10 14 17 18 17 5 -6 -4 -19 -20 -11 -4 13 10 -13 5 -15 -20 -20 -20 -20 -20 -20 -20
-14 8 8 -20 -18 -18 -9 -8 -20 -20 -0 -10 15 10 -7 -16 25 -19 -20 -16 5 8 25 0 15 20 -1 -20 -0 10 2 9 12 12 7 -12 -20 -19 -8 -16 -20 13 19 -5 -1 -8 -20 -20 -20 -20 -20 -20 -20 -20
-20 -8 11 13 2 -15 15 1 -20 -20 -20 -13 -1 13 15 -19 4 8 14 -1 10 28 24 19 -1 -0 1 -1 10 9 0 5 12 4 -9 -5 -3 -10 8 -16 -9 21 4 6 -12 -20 -20 -20 -20 -20 -20 -20 -20 -20
10 6 10 10 16 13 5 -1 -20 -20 -19 -6 3 21 22 24 22 29 17 25 13 13 24 25 4 -3 -20 -18 -15 2 -8 -0 4 8 7 0 -7 14 10 -16 23 13 9 -10 -20 -20 -20 -20 -20 -20 -20 -20 -20 -20
6 3 10 2 -1 1 8 -2 -3 -20 -20 -8 10 17 19 12 22 6 12 19 27 11 19 18 -14 -20 -20 -20 -20 -20 -5 -6 2 4 6 -20 6 12 -2 13 15 10 4 -20 -20 -20 -20 -20 -20 -20 -20 -20 -20 -20
3 -3 5 -1 -0 8 -2 16 -4 -15 -0 -4 16 19 8 -1 -18 -11 18 24 29 21 17 -6 -20 -20 -18 -20 -19 6 8 7 -6 4 0 11 9 -6 13 14 10 8 -19 -20 -20 -20 -20 -20 -20 -20 -20 -20 -20 -20
-18 -2 1 0 1 12 -6 -13 -7 -20 18 17 12 13 22 -13 19 19 12 5 11 -17 -19 -20 -20 -20 -11 2 7 6 12 8 6 -20 9 14 9 20 11 9 6 -18 -20 -20 -20 -20 -20 -20 -20 -20 -20 -20 -20 -20
-16 -17 -20 -2 12 -20 -17 0 -20 -8 25 21 21 28 16 21 10 4 13 2 -20 -20 -20 -3 -9 -20 7 15 18 17 9 9 6 -7 13 8 3 8 8 2 -20 -20 -20 -20 -20 -20 -20 -20 -20 -20 -20 -20 -20 -20
-1 -20 -10 5 7 -20 5 -20 18 23 24 25 23 15 9 3 6 -13 -20 -20 -20 -14 -20 -20 -10 -1 8 14 9 9 10 6 -1 -15 11 5 3 1 -6 -20 -20 -20 -20 -20 -20 -20 -20 -20 -20 -20 -20 -20 -20 -20
-20 -20 2 -16 2 -9 8 -15 14 28 22 23 20 17 14 -13 -20 -20 -20 -1 -8 -4 10 8 7 9 2 -9 -15 -1 -2 0 -19 -9 2 3 -5 -19 -20 -20 -20 -20 -20 -20 -20 -20 -20 -20 -20 -20 -20 -20 -20 -20
-20 -4 6 -20 -4 14 -20 -15 17 21 26 23 18 15 0 -1 -20 -20 6 1 8 14 7 -19 -19 -20 -20 -20 -3 -1 3 4 4 5 -0 -19 -20 -20 -20 -20 -20 -20 -20 -20 -20 -20 -20 -20 -20 -20 -20 -20 -20 -20
5 2 -10 -6 13 16 9 -13 20 16 22 23 11 -11 -20 -8 -7 12 12 16 13 7 0 -20 -20 -20 -20 -20 -19 -20 -6 -1 -5 -20 -20 -20 -20 -20 -20 -20 -20 -20 -20 -20 -20 -20 -20 -20 -20 -20 -20 -20 -20 -20
6 16 12 10 -2 -16 9 6 13 15 22 20 1 -18 -15 -8 12 19 13 -8 -18 -20 -20 -20 -20 -20 -20 -19 -20 -9 -17 -20 -20 -20 -20 -20 -20 -20 -20 -20 -20 -20 -20 -20 -20 -20 -20 -20 -20 -20 -20 -20 -20 -20
-8 -1 -20 -20 -20 13 27 6 16 8 11 5 -20 -20 -20 -20 -20 -20 -20 -20 -19 -20 -13 -16 -20 -20 -20 -20 -8 -20 -20 -20 -20 -20 -20 -20 -20 -20 -20 -20 -20 -20 -20 -20 -20 -20 -20 -20 -20 -20 -20 -20 -20 -20
-4 -20 -20 8 -20 19 0 10 6 4 -7 -20 -20 -20 -20 -20 -20 -20 -16 -5 -7 -8 -20 -2 -19 -20 -20 -20 -20 -20 -20 -20 -20 -20 -20 -20 -20 -20 -20 -20 -20 -20 -20 -20 -20 -20 -20 -20 -20 -20 -20 -20 -20 -20
-20 -20 -20 6 17 10 9 -6 2 2 -20 -20 -20 -20 -20 -20 -20 -20 -20 1 -1 -3 -9 -0 -11 -20 -20 -20 -20 -20 -20 -20 -20 -20 -20 -20 -20 -20 -20 -20 -20 -20 -20 -20 -20 -20 -20 -20 -20 -20 -20 -20 -20 -20
-9 -3 15 22 23 9 -9 -9 -20 -20 -20 -20 -20 -20 -20 -20 -20 -20 -2 8 9 8 6 1 -8 -20 -20 -20 -20 -20 -20 -20 -20 -20 -20 -20 -20 -20 -20 -20 -20 -20 -20 -20 -20 -20 -20 -20 -20 -20 -20 -20 -20 -20
-20 1 6 13 12 4 -2 -20 -20 -20 -20 -20 -20 -20 -20 -20 -20 -20 -13 5 10 -5 4 -8 -20 -20 -20 -20 -20 -20 -20 -20 -20 -20 -20 -20 -20 -20 -20 -20 -20 -20 -20 -20 -20 -20 -20 -20 -20 -20 -20 -20 -20 -20
-12 -3 -7 12 1 -20 -20 -20 -20 -20 -20 -20 -20 -20 -20 -20 -20 -17 -7 1 -5 9 1 -20 -20 -20 -20 -20 -20 -20 -20 -20 -20 -20 -20 -20 -20 -20 -20 -20 -20 -20 -20 -20 -20 -20 -20 -20 -20 -20 -20 -20 -20 -20
7 0 -6 -18 -20 -20 -20 -20 -20 -20 -20 -20 -20 -20 -20 -20 -20 -18 -19 -16 -11 3 -20 -20 -20 -20 -20 -20 -20 -20 -20 -20 -20 -20 -20 -20 -20 -20 -20 -20 -20 -20 -20 -20 -20 -20 -20 -20 -19 -20 -20 -20 -20 -20
-18 -20 -20 -20 -20 -20 -20 -20 -20 -20 -20 -20 -20 -20 -20 -20 -20 -20 -20 -12 -16 -18 -20 -20 -20 -20 -20 -20 -20 -20 -20 -20 -20 -20 -20 -20 -20 -20 -20 -20 -20 -20 -20 -20 -20 -20 -20 -20 -20 -20 -20 -20 -20 -20
-20 -20 -20 -20 -20 -20 -20 -20 -20 -20 -20 -20 -20 -20 -20 -20 -20 -20 -20 -20 -20 -20 -20 -20 -20 -20 -20 -20 -20 -20 -20 -20 -20 -20 -20 -20 -20 -20 -20 -20 -20 -20 -20 -20 -20 -20 -20 -20 -20 -20 -20 -20 -20 -20
-20 -20 -20 -20 -20 -20 -20 -20 -20 -20 -20 -20 -20 -20 -20 -20 -20 -20 -20 -20 -20 -20 -20 -20 -20 -20 -20 -20 -20 -20 -20 -20 -20 -20 -20 -20 -20 -20 -20 -20 -20 -20 -20 -20 -20 -20 -20 -20 -20 -20 -20 -20 -5 -20
-20 -20 -20 -20 -20 -20 -20 -20 -20 -20 -20 -20 -20 -20 -20 -20 -20 -20 -20 -20 -20 -20 -20 -20 -20 -20 -20 -20 -20 -20 -20 -20 -20 -20 -20 -20 -20 -20 -20 -20 -20 -20 -20 -20 -20 -20 -20 -20 -20 -20 -20 -20 -20 -20
-20 -20 -20 -20 -20 -20 -20 -20 -20 -20 -20 -20 -20 -20 -20 -20 -20 -20 -20 -20 -20 -20 -20 -20 -20 -20 -20 -20 -20 -20 -20 -20 -20 -20 -20 -20 -20 -20 -20 -20 -20 -20 -20 -20 -20 -20 -20 -20 -20 -20 -20 -20 -20 -20
-20 -20 -20 -20 -20 -20 -20 -20 -20 -20 -20 -20 -20 -20 -20 -20 -20 -20 -20 -20 -20 -20 -20 -20 -20 -20 -20 -20 -20 -20 -20 -20 -20 -20 -20 -20 -20 -20 -20 -20 -20 -20 -20 -20 -20 -20 -20 -20 -20 -20 -20 -20 -20 -20
-20 -20 -20 -20 -20 -20 -20 -20 -20 -20 -20 -20 -20 -20 -20 -20 -20 -20 -20 -20 -20 -20 -20 -20 -20 -20 -20 -20 -20 -20 -20 -20 -20 -20 -20 -20 -20 -20 -20 -20 -20 -20 -20 -20 -20 -20 -5 -20 -8 -17 -20 -20 -20 -20
-19 -20 -20 -20 -20 -20 -20 -20 -20 -20 -20 -20 -20 -20 -20 -20 -20 -20 -20 -20 -20 -20 -20 -20 -20 -20 -20 -20 -20 -20 -20 -20 -20 -20 -20 -20 -20 -20 -20 -20 -20 -20 -20 -20 -20 -20 -20 -20 -20 -20 -20 -20 -20 -20
-20 -20 -20 -20 -20 -20 -20 -20 -20 -20 -20 -20 -20 -20 -20 -20 -20 -20 -20 -20 -20 -20 -20 -20 -20 -20 -20 -20 -20 -20 -20 -20 -20 -20 -20 -20 -20 -20 -20 -20 -20 -20 -20 -20 -20 -20 -20 -20 -20 -20 -20 -20 -20 -20
-20 -20 -20 -20 -20 -20 -20 -20 -20 -20 -20 -20 -20 -20 -20 -20 -20 -20 -20 -20 -20 -20 -20 -20 -20 -20 -20 -20 -20 -20 -20 -20 -20 -20 -20 -20 -20 -20 -20 -20 -20 -20 -20 -20 -20 -20 -20 -20 -20 -20 -20 -20 -20 -20

GFSWCAN_prec_radar_288.txt.gz
Reflectivity
1 -20 -20 -13 -12 -4 6 -8 8 -3 19 18 -11 -2 -20 -20 -20 -11 12 8 14 25 -20 -20 -7 8 18 11 9 -11 22 9 8 12 -4 -20 -16 -20 -12 -20 -20 2 16 13 11 13 -3 -7 -9 1 4 -20 -20 -20
4 8 -20 -20 -11 8 15 17 16 -17 -20 14 -18 3 -20 -15 4 22 22 14 17 22 14 -20 -20 -20 -19 -2 25 21 18 -19 6 19 13 8 10 10 1 -18 -20 -7 -6 13 14 12 17 17 12 8 3 2 -2 -1
8 11 6 -12 -20 6 9 13 13 -3 -1 16 -5 -9 -3 -17 -15 21 20 7 -2 24 -6 10 -13 -20 -20 -20 -20 5 5 -20 4 11 26 11 16 -0 9 -18 -20 -17 -15 13 2 0 11 16 14 11 9 -10 3 -15
10 11 9 -7 -20 -20 -20 -6 12 -3 -3 -13 -1 14 -14 -10 -20 3 23 15 16 21 12 -20 -20 -20 -20 -20 -20 -9 14 19 16 14 20 18 -3 7 -2 -20 -8 -20 -20 -3 14 1 17 10 12 17 1 4 -16 -20
12 9 9 8 -15 -20 -2 2 4 -8 17 -8 -7 -6 15 -5 -16 16 7 -14 -16 18 13 -14 -20 -20 -20 -20 -20 -20 -17 -6 1 5 10 5 -20 -15 -4 -16 -20 -20 -20 -4 12 0 4 1 7 1 -3 -18 -20 -20
14 14 12 5 9 -10 11 -20 -1 1 -4 1 6 -5 -11 16 -3 21 3 -20 -20 -9 21 16 21 -18 -20 -20 -20 -19 -2 10 2 -13 -20 -17 -20 1 10 -20 -20 -14 -17 -19 -1 8 1 8 6 -1 -12 -20 -20 -20
18 13 3 7 11 11 6 -1 7 -20 10 -2 -14 -18 -20 -15 20 19 -2 -20 19 31 24 9 -20 -20 -20 -20 -6 -16 1 -12 -19 -5 1 -20 -20 7 5 -20 -7 -6 -12 -20 -1 9 6 -0 -8 -18 -20 -20 -20 -20
18 -2 1 15 15 8 -1 -17 16 9 19 -20 -1 -14 -3 -18 3 -0 4 25 21 28 16 2 -20 -20 -20 -20 -20 -19 -8 -7 4 -19 -2 3 16 5 -13 -5 -20 -20 -20 -20 4 5 -11 -10 -20 -20 -20 -20 -20 -20
-8 12 23 17 9 4 6 -7 -5 -13 -20 8 -20 -20 -20 -10 -5 -6 28 28 23 15 9 -19 -20 -20 -20 -20 -20 -6 -2 -0 -3 -1 -10 5 -17 -20 -0 -20 -8 -5 -2 -10 -13 -14 -20 -20 -20 -20 -20 -20 -20 -20
9 10 19 17 4 4 10 -20 -10 21 -20 -20 0 -20 -20 -20 13 11 -15 -15 -12 -17 -9 -20 -20 -20 -11 1 8 2 -19 -20 -20 -20 -16 -8 -11 -0 -6 -1 10 -13 -11 -13 -20 -20 -20 -20 -20 -20 -20 -20 -20 -20
11 10 19 18 12 -12 12 -20 21 -14 -20 -20 -20 -20 -20 0 -20 -20 -20 -20 -20 -20 -7 4 13 12 8 -2 -3 -15 -20 -20 -20 -20 -20 -20 -20 -10 -12 -2 2 -8 -20 -20 -20 -20 -20 -20 -20 -20 -20 -20 -20 -20
13 10 19 19 13 11 -19 -20 19 -16 -20 -9 -18 -20 -20 -20 -20 -20 -20 -20 -16 8 6 -3 -20 -11 -2 -12 -20 -20 -20 -20 -20 -20 -20 -20 -20 -20 -20 -20 -20 -20 -20 -20 -20 -20 -20 -20 -20 -20 -20 -20 -20 -20
10 17 20 21 14 8 -20 18 -17 -20 2 -20 -20 -20 -20 -20 -20 -20 -19 7 11 4 -15 -14 -2 -18 -20 -20 -20 -20 -20 -20 -20 -20 -20 -20 -20 -20 -20 -20 -20 -20 -20 -20 -20 -20 -20 -20 -20 -20 -20 -20 -20 -20
13 13 23 21 13 -20 -20 20 -20 -19 -20 -20 -20 -20 -20 -20 -20 0 12 -17 -16 -11 -20 -20 -20 -20 -20 -20 -20 -20 -20 -20 -20 -20 -20 -20 -20 -20 -20 -20 -20 -20 -20 -20 -20 -20 -20 -20 -20 -20 -20 -20 -20 -20
16 16 29 21 5 -20 16 20 -4 -14 -20 -20 -19 -20 -20 -20 -20 -18 -20 -20 -20 -20 -20 -20 -20 -20 -20 -20 -20 -20 -20 -20 -20 -20 -20 -20 -20 -20 -20 -20 -20 -20 -20 -20 -20 -20 -20 -20 -20 -20 -20 -20 -20 -20
17 24 33 15 -3 8 6 1 0 -20 -20 -20 -20 -20 -20 -20 -20 -20 -20 -20 -20 -20 -20 -20 -20 -20 -20 -20 -20 -20 -20 -20 -20 -20 -20 -20 -20 -20 -20 -20 -20 -20 -20 -20 -20 -20 -20 -20 -20 -20 -20 -20 -20 -20
27 40 20 9 12 14 -20 -20 -20 -20 -20 -20 -20 -20 -20 -20 -20 -20 -20 -20 -20 -20 -13 -20 -20 -20 -20 -20 -20 -20 -20 -20 -20 -20 -20 -20 -20 -20 -20 -20 -20 -20 -20 -20 -20 -20 -20 -20 -20 -20 -20 -20 -20 -20
35 21 10 6 -20 -20 -20 -18 -20 -19 -20 -20 -20 -20 -20 -20 -20 -20 -20 -20 -20 -20 -13 -19 -20 -20 -13 -20 -20 -20 -20 -20 -20 -20 -20 -20 -20 -20 -20 -20 -20 -20 -20 -20 -20 -20 -20 -20 -20 -20 -20 -20 -20 -20
13 4 5 -20 -20 -20 -20 -20 -20 -20 -20 -20 -20 -20 -20 -20 -20 -20 -20 -19 -20 -18 -6 -18 -12 -20 -20 -20 -20 -20 -20 -20 -20 -20 -20 -20 -20 -20 -20 -20 -20 -20 -20 -20 -20 -20 -20 -20 -20 -20 -20 -20 -20 -20
27 16 2 -20 -20 -20 -20 -18 -20 -20 -20 -20 -20 -20 -20 -20 -20 -20 -20 -19 -13 -9 -16 -15 -16 -17 -20 -20 -20 -20 -20 -20 -20 -20 -20 -20 -20 -20 -20 -20 -20 -20 -20 -20 -20 -20 -20 -20 -20 -20 -20 -20 -20 -20
7 20 1 -20 -20 -20 -19 -20 -20 -20 -20 -20 -20 -20 -20 -20 -20 -20 -20 -17 3 -20 -4 -17 -18 -11 -20 -20 -20 -20 -20 -20 -20 -20 -20 -20 -20 -20 -20 -20 -20 -20 -20 -20 -20 -20 -20 -20 -20 -20 -20 -20 -20 -20
6 9 -18 -19 -20 -20 -20 -20 -20 -20 -20 -20 -20 -20 -20 -20 -20 -20 -20 -20 -20 3 5 -18 -20 -20 -20 -20 -20 -20 -20 -20 -20 -20 -20 -20 -20 -20 -20 -20 -20 -20 -20 -20 -20 -20 -20 -20 -20 -20 -20 -20 -20 -20
-11 -20 -20 -20 -20 -20 -20 -20 -20 -20 -20 -20 -20 -20 -20 -20 -20 -20 -20 -20 -20 -17 -16 -20 -20 -20 -20 -20 -20 -20 -20 -20 -20 -20 -20 -20 -20 -20 -20 -20 -20 -20 -20 -20 -20 -20 -20 -20 -19 -20 -20 -20 -20 -20
-20 -20 -20 -20 -20 -20 -20 -20 -20 -20 -20 -20 -20 -20 -20 -20 -20 -20 -20 -20 -20 -20 -20 -20 -20 -20 -20 -20 -20 -20 -20 -20 -20 -20 -20 -20 -20 -20 -20 -20 -20 -20 -20 -20 -20 -20 -20 -20 -20 -20 -20 -20 -20 -20
-20 -20 -20 -20 -20 -20 -20 -20 -20 -20 -20 -20 -20 -20 -20 -20 -20 -20 -20 -20 -20 -20 -20 -20 -20 -20 -20 -20 -20 -20 -20 -20 -20 -20 -20 -20 -20 -20 -20 -20 -20 -20 -20 -20 -20 -20 -20 -20 -20 -20 -20 -20 -20 -20
-20 -20 -20 -20 -20 -20 -20 -20 -20 -20 -20 -20 -20 -20 -20 -20 -20 -20 -20 -20 -20 -20 -20 -20 -20 -20 -20 -20 -20 -20 -20 -20 -20 -20 -20 -20 -20 -20 -20 -20 -20 -20 -20 -20 -20 -20 -20 -20 -20 -20 -20 -20 -5 -20
-20 -20 -20 -20 -20 -20 -20 -20 -20 -20 -20 -20 -20 -20 -20 -20 -20 -20 -20 -20 -20 -20 -20 -20 -20 -20 -20 -20 -20 -20 -20 -20 -20 -20 -20 -20 -20 -20 -20 -20 -20 -20 -20 -20 -20 -20 -20 -20 -20 -20 -20 -20 -20 -20
-20 -20 -20 -20 -20 -20 -20 -20 -20 -20 -20 -20 -20 -20 -20 -20 -20 -20 -20 -20 -20 -20 -20 -20 -20 -20 -20 -20 -20 -20 -20 -20 -20 -20 -20 -20 -20 -20 -20 -20 -20 -20 -20 -20 -20 -20 -20 -20 -20 -20 -20 -20 -20 -20
-20 -20 -20 -20 -20 -20 -20 -20 -20 -20 -20 -20 -20 -20 -20 -20 -20 -20 -20 -20 -20 -20 -20 -20 -20 -20 -20 -20 -20 -20 -20 -20 -20 -20 -20 -20 -20 -20 -20 -20 -20 -20 -20 -20 -20 -20 -20 -20 -20 -20 -20 -20 -20 -20
-20 -20 -20 -20 -20 -20 -20 -20 -20 -20 -20 -20 -20 -20 -20 -20 -20 -20 -20 -20 -20 -20 -20 -20 -20 -20 -20 -20 -20 -20 -20 -20 -20 -20 -20 -20 -20 -20 -20 -20 -20 -20 -20 -20 -20 -16 3 -18 -7 -20 -20 -20 -20 -20
-20 -20 -20 -20 -20 -20 -20 -20 -20 -20 -20 -20 -20 -20 -20 -20 -20 -20 -20 -20 -20 -20 -20 -20 -20 -20 -20 -20 -20 -20 -20 -20 -20 -20 -20 -20 -20 -20 -20 -20 -20 -20 -20 -20 -20 -20 -20 -20 -20 -20 -20 -20 -20 -20
-20 -20 -20 -20 -20 -20 -20 -20 -20 -20 -20 -20 -20 -20 -20 -20 -20 -20 -20 -20 -20 -20 -20 -20 -20 -20 -20 -20 -20 -20 -20 -20 -20 -20 -20 -20 -20 -20 -20 -20 -20 -20 -20 -20 -20 -20 -20 -20 -20 -20 -20 -20 -20 -20
-20 -20 -20 -20 -20 -20 -20 -20 -20 -20 -20 -20 -20 -20 -20 -20 -20 -20 -20 -20 -20 -20 -20 -20 -20 -20 -20 -20 -20 -20 -20 -20 -20 -20 -20 -20 -20 -20 -20 -20 -20 -20 -20 -20 -20 -20 -20 -20 -20 -20 -20 -20 -20 -20

GFSWCAN_prec_radar_294.txt.gz
Reflectivity
-4 3 1 7 11 12 -14 -10 13 -20 -20 10 18 21 -5 22 21 16 -2 -20 20 15 12 -20 -20 -4 6 17 12 11 7 9 13 -19 -3 22 9 -4 -10 -20 0 -20 -20 -20 -12 -1 -18 -17 -19 -9 3 4 -15 -20
4 6 11 10 11 7 8 -15 18 -11 -20 5 16 16 19 -19 20 22 10 -19 19 18 -17 -17 -16 -16 -18 -20 -20 0 7 2 19 -4 -7 -5 5 -6 -8 -14 -20 -19 -20 -9 -0 -20 4 5 -20 -19 -3 -17 -19 -20
7 8 11 9 8 4 -16 -4 18 -20 19 -20 -20 16 21 -16 22 22 11 -8 13 10 -19 -20 -20 -20 -20 -20 -20 14 -8 -4 2 -19 10 14 6 -19 -17 -16 -5 -20 -20 -13 -20 -20 -16 -12 -20 -20 -18 -20 -20 -16
8 10 9 11 9 -4 10 -1 21 -7 -3 -16 11 -11 10 -11 -16 -11 12 11 16 9 11 -20 -20 -20 -20 -20 -20 -11 1 -15 12 16 15 13 -3 -1 -11 -12 -20 -20 -20 -20 -20 -20 -20 -20 -20 -20 -20 -19 -19 -5
10 12 10 4 9 13 11 0 15 -7 10 -1 -20 19 9 -12 6 -15 -20 -20 9 13 -3 -20 -20 -20 -20 -20 -20 -20 -17 12 15 12 10 1 -20 -19 -17 -6 -20 -12 -7 -7 -2 3 -18 -14 -20 -20 -20 -20 -8 -17
12 11 10 8 -0 -8 11 17 3 -20 22 10 -20 -5 -9 -17 -20 -15 -20 -7 3 20 23 22 -20 -20 -20 -20 -20 -20 -20 -8 -4 7 2 -12 -20 0 12 5 -20 -20 -13 -18 -12 -15 1 -19 -20 -20 -20 -20 -20 -20
9 10 15 -8 -11 14 -17 -19 6 -20 23 -20 -12 -20 22 11 -9 4 1 -10 -6 -17 9 -12 -5 -20 -20 -20 -20 -20 -20 -6 1 7 -2 -18 -11 5 11 -19 -8 2 4 4 -14 -17 -20 -19 -15 -20 -20 -20 -20 -20
13 16 -7 -2 19 1 -19 14 15 18 20 -18 -7 5 -20 -9 -16 -12 -18 -11 -3 12 16 4 -15 -20 -20 -20 -20 -20 -13 1 -1 5 10 2 -11 -15 -12 -20 -19 -20 -20 -20 -20 -20 -20 -20 -20 -20 -20 -20 -20 -20
11 -2 6 -8 17 -14 4 8 8 24 20 2 -20 -20 -20 3 -9 -17 0 6 9 14 -7 2 -16 -19 -20 -20 -20 -20 -20 -6 -16 -18 -3 -20 -20 -20 -20 -16 -19 -19 -20 -20 -20 -20 -20 -20 -20 -20 -20 -20 -20 -20
11 9 -9 11 -20 6 0 6 24 21 13 -20 -20 -20 11 -20 -7 -20 -9 2 -10 -13 10 -7 -14 -15 -20 -20 -18 -19 -20 -20 -20 -20 -20 -20 -20 -20 -20 -20 -20 -20 -20 -20 -20 -20 -20 -20 -20 -20 -20 -20 -20 -20
10 11 14 14 -7 9 4 13 27 15 0 -20 -20 -19 -20 -20 -20 -20 -14 -18 -20 -20 -20 -20 -20 -20 -20 -17 -10 -20 -20 -20 -20 -20 -20 -20 -20 -20 -20 -20 -20 -20 -20 -20 -20 -20 -20 -20 -20 -20 -20 -20 -20 -20
13 11 11 14 12 8 13 26 27 12 -20 -20 -20 -20 -20 -20 -17 -20 -13 -20 -20 -20 -20 -20 -20 -20 -20 -20 -20 -20 -20 -20 -20 -20 -20 -20 -20 -20 -20 -20 -20 -20 -20 -20 -20 -20 -20 -20 -20 -20 -20 -20 -20 -20
18 13 15 12 10 11 18 29 17 -13 -20 -20 -20 -20 -16 -20 -20 -20 -20 -20 -20 -20 -20 -20 -20 -20 -20 -20 -20 -20 -20 -20 -20 -20 -20 -20 -20 -20 -20 -20 -20 -20 -20 -20 -20 -20 -20 -20 -20 -20 -20 -20 -20 -20
23 23 14 12 13 17 20 32 22 -3 -20 -20 -20 -20 -20 -20 -20 -20 -20 -20 -20 -20 -20 -20 -20 -20 -20 -20 -20 -20 -20 -20 -20 -20 -20 -20 -20 -20 -20 -20 -20 -20 -20 -20 -20 -20 -20 -20 -20 -20 -20 -20 -20 -20
22 24 17 10 14 16 27 32 -3 -18 -20 -20 -20 -20 -20 -20 -20 -20 -20 -20 -20 -20 -20 -20 -20 -20 -20 -20 -20 -20 -20 -20 -20 -20 -20 -20 -20 -20 -20 -20 -20 -20 -20 -20 -20 -20 -20 -20 -20 -20 -20 -20 -20 -20
22 22 27 9 18 21 36 30 11 -4 -20 -20 -20 -6 -20 -20 -20 -20 -20 -20 -20 -20 -20 -20 -20 -20 -20 -20 -20 -20 -20 -20 -20 -20 -20 -20 -20 -20 -20 -20 -20 -20 -20 -20 -20 -20 -20 -20 -20 -20 -20 -20 -20 -20
25 34 10 -8 20 30 38 14 21 -5 -20 -8 -20 -18 -20 -20 -20 -20 -20 -20 -20 -20 -20 -20 -20 -20 -20 -20 -20 -20 -20 -20 -20 -20 -20 -20 -20 -20 -20 -20 -20 -20 -20 -20 -20 -20 -20 -20 -20 -20 -20 -20 -20 -20
33 26 9 22 34 39 20 15 7 -18 -20 -20 -20 -20 -20 -20 -20 -20 -20 -20 -20 -20 -20 -20 -20 -20 1 -18 -20 -20 -20 -20 -20 -20 -20 -20 -20 -20 -20 -20 -20 -20 -20 -20 -20 -20 -20 -20 -20 -20 -20 -20 -20 -20
19 9 24 32 31 -1 4 -3 -19 -20 -20 -20 -20 -20 -20 -20 -20 -20 -20 -20 -14 -19 -20 -20 -20 -20 -20 -20 -20 -20 -20 -20 -20 -20 -20 -20 -20 -20 -20 -20 -20 -20 -20 -20 -20 -20 -20 -20 -20 -20 -20 -20 -20 -20
10 28 25 33 20 11 8 -4 -20 -20 -20 -20 -20 -20 -20 -20 -20 -20 -20 -18 -20 -20 -20 -20 -20 -20 -16 -12 -20 -20 -20 -20 -20 -20 -20 -20 -20 -20 -20 -20 -20 -20 -20 -20 -20 -20 -20 -20 -20 -20 -20 -20 -20 -20
35 35 33 17 7 2 -20 -20 -20 -20 -20 -20 -20 -20 -20 -20 -20 -20 -20 -20 -13 -20 -20 -20 -20 -20 -9 -8 -20 -20 -20 -20 -20 -20 -20 -20 -20 -20 -20 -20 -20 -20 -20 -20 -20 -20 -20 -20 -20 -20 -20 -20 -20 -20
30 23 15 8 -2 -20 -20 -20 -20 -20 -20 -20 -20 -20 -20 -20 -20 -20 -20 -20 -20 -20 -20 -20 -20 -20 -20 -20 -20 -20 -20 -20 -20 -20 -20 -20 -20 -20 -20 -20 -20 -20 -20 -20 -20 -20 -20 -20 -20 -20 -20 -20 -20 -20
13 13 10 -7 -20 -20 -20 -20 -20 -20 -20 -20 -20 -20 -20 -20 -20 -20 -20 -20 -20 -20 -20 -20 -20 -20 -20 -20 -20 -20 -20 -20 -20 -20 -20 -20 -20 -20 -20 -20 -20 -20 -20 -20 -20 -20 -20 -20 -20 -20 -20 -20 -20 -20
-4 -7 -19 -20 -20 -20 -20 -20 -20 -20 -20 -20 -20 -20 -20 -20 -20 -20 -20 -20 -20 -20 -20 -20 -20 -20 -20 -20 -20 -20 -20 -20 -20 -20 -20 -20 -20 -20 -20 -20 -20 -20 -20 -20 -20 -20 -20 -20 -20 -20 -20 -20 -20 -20
-18 -20 -20 -20 -20 -20 -20 -20 -20 -20 -20 -20 -20 -20 -20 -20 -20 -20 -20 -20 -20 -20 -20 -20 -20 -20 -20 -20 -20 -20 -20 -20 -20 -20 -20 -20 -20 -20 -20 -20 -20 -20 -20 -20 -20 -20 -20 -20 -20 -20 -20 -20 -20 -20
-20 -20 -20 -20 -20 -20 -20 -20 -20 -20 -20 -20 -20 -20 -20 -20 -20 -20 -20 -20 -20 -20 -20 -20 -20 -20 -20 -20 -20 -20 -20 -20 -20 -20 -20 -20 -20 -20 -20 -20 -20 -20 -20 -20 -20 -20 -20 -20 -20 -20 -20 -20 -7 -20
-20 -20 -20 -20 -20 -20 -20 -20 -20 -20 -20 -20 -20 -20 -20 -20 -20 -20 -20 -20 -20 -20 -20 -20 -20 -20 -20 -20 -20 -20 -20 -20 -20 -20 -20 -20 -20 -20 -20 -20 -20 -20 -20 -20 -20 -20 -20 -20 -20 -20 -20 -20 -20 -20
-20 -20 -20 -20 -20 -20 -20 -20 -20 -20 -20 -20 -20 -20 -20 -20 -20 -20 -20 -20 -20 -20 -20 -20 -20 -20 -20 -20 -20 -20 -20 -20 -20 -20 -20 -20 -20 -20 -20 -20 -20 -20 -20 -20 -20 -20 -20 -20 -20 -20 -20 -20 -20 -20
-20 -20 -20 -20 -20 -20 -20 -20 -20 -20 -20 -20 -20 -20 -20 -20 -20 -20 -20 -20 -20 -20 -20 -20 -20 -20 -20 -20 -20 -20 -20 -20 -20 -20 -20 -20 -20 -20 -20 -20 -20 -20 -20 -20 -20 -20 -20 -20 -20 -20 -20 -20 -20 -20
-20 -20 -20 -20 -20 -20 -20 -20 -20 -20 -20 -20 -20 -20 -20 -20 -20 -20 -20 -20 -20 -20 -20 -20 -20 -20 -20 -20 -20 -20 -20 -20 -20 -20 -18 -20 -20 -20 -20 -20 -20 -20 -20 -20 -20 -20 -2 -19 -8 -20 -20 -20 -20 -20
-20 -20 -20 -20 -20 -20 -20 -20 -20 -20 -20 -20 -20 -20 -20 -20 -20 -20 -20 -20 -20 -20 -20 -20 -20 -20 -20 -20 -20 -20 -20 -12 -5 -18 -20 -20 -20 -20 -20 -20 -20 -20 -20 -20 -20 -20 -20 -20 -20 -20 -20 -20 -20 -20
-20 -20 -20 -20 -20 -20 -20 -20 -20 -20 -20 -20 -20 -20 -20 -20 -20 -20 -20 -20 -20 -20 -20 -20 -20 -20 -20 -20 -16 -7 -19 -20 -20 -20 -20 -20 -20 -20 -20 -20 -20 -20 -20 -20 -20 -20 -20 -20 -20 -20 -20 -20 -20 -20
-20 -20 -20 -20 -20 -20 -20 -20 -20 -20 -20 -20 -20 -20 -20 -20 -20 -20 -20 -20 -20 -20 -20 -20 -20 -20 -20 -20 -20 -20 -20 -20 -20 -20 -20 -20 -20 -20 -20 -20 -20 -20 -20 -20 -20 -20 -20 -20 -20 -20 -20 -20 -20 -20

GFSWCAN_prec_radar_297.txt.gz
Reflectivity
11 9 5 5 5 10 10 -3 9 -16 8 6 8 -2 -12 -1 9 23 11 -8 30 26 -20 -20 -20 7 12 9 19 -8 -10 -19 -20 -18 13 -19 -20 -20 -20 -20 -20 -20 16 -15 -8 -7 -20 -20 -20 -10 8 -19 -20 -20
6 9 9 9 9 7 10 9 8 -3 3 -20 13 -20 -20 -20 -2 24 12 -20 16 31 7 -20 -20 -20 -20 -20 -2 1 -15 -20 10 2 -0 17 0 -20 -20 -15 -20 -19 -20 -20 12 -13 -20 -20 -20 -20 -20 -20 -20 -20
7 8 9 4 10 10 10 12 8 4 12 13 14 -20 -17 8 13 23 6 -10 -8 19 -20 -20 -20 -20 -20 -20 -15 9 -20 -20 -15 -17 -7 -1 -11 -1 5 -20 -20 -20 -20 -5 -14 -20 -20 -6 -15 -20 -20 -20 -20 -20
10 9 10 13 16 12 12 4 12 -10 2 1 18 -4 -20 -20 7 -16 -20 -0 17 9 3 -20 -20 -20 -20 -20 -20 -20 -20 -11 -5 8 14 11 -4 -18 -20 -20 -20 -20 -20 -9 -15 -20 -3 4 -20 -20 -20 -20 -20 -20
10 10 12 15 14 13 15 -20 13 -4 14 -20 19 7 -20 -7 -13 18 -18 -20 -11 -1 -20 -20 -20 -20 -20 -20 -20 -20 -20 2 8 11 -5 -20 -20 -4 -6 -7 -20 -20 -20 -5 -0 -16 -9 4 3 -20 -20 -20 -20 -20
12 12 13 12 14 -10 -11 -13 -2 -20 18 -20 20 12 -20 -20 13 21 -20 -17 27 28 16 6 -20 -20 -20 -20 -20 -20 -20 -20 -2 -8 -20 -20 -18 9 12 -10 -20 -19 -12 6 13 4 -2 -3 -14 -20 -20 -20 -20 -20
11 12 13 9 1 -14 -19 -11 -20 -19 -20 11 19 19 -11 -6 -10 9 -20 -20 6 -20 -16 -20 -20 -20 -20 -20 -20 -20 -20 -20 -12 1 -5 -15 -7 4 2 -20 -6 -16 -20 -20 -20 -20 -20 -20 -20 -20 -20 -20 -20 -20
14 15 16 18 19 -7 -19 21 -19 -1 -20 4 9 17 -0 -20 -5 -18 -18 9 -17 -5 -3 -18 -20 -20 -20 -20 -20 -20 -20 -20 -20 -20 -20 -20 -20 -20 -20 -20 -20 -20 -20 -20 -20 -20 -20 -20 -20 -20 -20 -20 -20 -20
13 15 16 19 -20 19 -20 14 10 -18 13 29 18 -13 -20 -20 -13 -13 4 11 4 4 -11 -18 -20 -20 -20 -20 -20 -20 -20 -20 -20 -20 -20 -20 -20 -20 -20 -12 -20 -20 -20 -20 -20 -20 -20 -20 -20 -20 -20 -20 -20 -20
16 18 16 18 19 -20 -20 -20 -18 12 24 30 -20 -20 -20 -20 7 -20 -19 -6 -20 -16 -4 -20 -20 -20 -20 -20 -20 -20 -20 -20 -20 -20 -20 -20 -20 -20 -20 -20 -20 -20 -20 -20 -20 -20 -20 -20 -20 -20 -20 -20 -20 -20
21 23 21 20 13 2 -6 -11 -1 17 39 -2 -20 -20 -20 -17 -20 -20 -20 -20 -20 -20 -20 -20 -20 -20 -20 -20 -20 -20 -20 -20 -20 -20 -20 -20 -20 -20 -20 -20 -20 -20 -20 -20 -20 -20 -20 -20 -20 -20 -20 -20 -20 -20
24 27 30 17 11 -20 17 -11 19 33 28 -18 -20 -20 -12 -20 -20 -20 -20 -20 -20 -20 -20 -20 -20 -20 -20 -20 -20 -20 -20 -20 -20 -20 -20 -20 -20 -20 -20 -20 -20 -20 -20 -20 -20 -20 -20 -20 -20 -20 -20 -20 -20 -20
12 31 30 11 11 -6 12 13 19 37 11 -19 -20 -20 -20 -20 -20 -20 -20 -20 -20 -20 -20 -20 -20 -20 -20 -20 -20 -20 -20 -20 -20 -20 -20 -20 -20 -20 -20 -20 -20 -20 -20 -20 -20 -20 -20 -20 -20 -20 -20 -20 -20 -20
3 27 28 10 13 14 20 18 33 32 -0 -13 -20 -20 -20 -20 -20 -20 -20 -20 -20 -20 -20 -20 -20 -20 -20 -20 -20 -20 -20 -20 -20 -20 -20 -20 -20 -20 -20 -20 -20 -20 -20 -20 -20 -20 -20 -20 -20 -20 -20 -20 -20 -20
12 26 28 11 9 16 22 24 37 22 -7 -17 -20 -20 -20 -20 -20 -20 -20 -20 -20 -20 -20 -20 -20 -20 -20 -20 -20 -20 -20 -20 -20 -20 -20 -20 -20 -20 -20 -20 -20 -20 -20 -20 -20 -20 -20 -20 -20 -20 -20 -20 -20 -20
10 24 26 10 -8 21 25 36 32 19 -20 -16 -20 -7 -20 -20 -20 -20 -20 -20 -20 -20 -20 -20 -20 -20 -20 -20 -20 -20 -20 -20 -20 -20 -20 -20 -20 -20 -20 -20 -20 -20 -20 -20 -20 -20 -20 -20 -20 -20 -20 -20 -20 -20
2 36 19 2 14 28 33 30 28 7 -6 -20 -8 -4 -20 -20 -20 -20 -20 -20 -20 -20 -20 -20 -20 -20 -20 -20 -20 -20 -20 -20 -20 -20 -20 -20 -20 -20 -20 -20 -20 -20 -20 -20 -20 -20 -20 -20 -20 -20 -20 -20 -20 -20
26 19 -18 10 33 35 25 24 2 -6 -20 -20 -20 -20 -20 -20 -20 -20 -20 -20 -20 -20 -20 -20 -20 -20 -20 -20 -20 -20 -20 -20 -20 -20 -20 -20 -20 -20 -20 -20 -20 -20 -20 -20 -20 -20 -20 -20 -20 -20 -20 -20 -20 -20
20 -13 14 28 30 18 16 15 -1 -19 -20 -20 -20 -20 -20 -20 -20 -20 -20 -20 -19 -18 -20 -20 -20 -20 -20 -20 -20 -20 -20 -20 -20 -20 -20 -20 -20 -20 -20 -20 -20 -20 -20 -20 -20 -20 -20 -20 -20 -20 -20 -20 -20 -20
3 25 16 20 25 17 2 -20 -19 -20 -20 -20 -20 -20 -20 -20 -20 -20 -20 -19 -17 -15 -20 -20 -20 -20 -20 -20 -1 -19 -20 -20 -20 -20 -20 -20 -20 -20 -20 -20 -20 -20 -20 -20 -20 -20 -20 -20 -20 -20 -20 -20 -20 -20
35 34 29 14 3 -2 -20 -20 -20 -20 -20 -20 -20 -20 -20 -20 -20 -20 -20 -20 -16 -20 -20 -20 -20 -20 -20 -12 1 -8 -20 -20 -20 -20 -20 -20 -20 -20 -20 -20 -20 -20 -20 -20 -20 -20 -20 -20 -20 -20 -20 -20 -20 -20
32 24 1 9 2 -20 -16 -20 -20 -20 -20 -20 -20 -20 -20 -20 -20 -20 -20 -20 -20 -20 -20 -20 -20 -20 -20 -20 -14 -18 -20 -20 -20 -20 -20 -20 -20 -20 -20 -20 -20 -20 -20 -20 -20 -20 -20 -20 -20 -20 -20 -20 -20 -20
-8 -1 -6 -15 -3 -19 -20 -20 -20 -20 -20 -20 -20 -20 -20 -20 -20 -20 -20 -20 -20 -20 -20 -20 -20 -20 -20 -20 -20 -20 -20 -20 -20 -20 -20 -20 -20 -20 -20 -20 -20 -20 -20 -20 -20 -20 -20 -20 -20 -20 -20 -20 -20 -20
-6 -11 4 -10 -20 -20 -20 -20 -20 -20 -20 -20 -20 -20 -20 -20 -20 -20 -20 -20 -20 -20 -20 -20 -20 -20 -20 -20 -20 -20 -20 -20 -20 -20 -20 -20 -20 -20 -20 -20 -20 -20 -20 -20 -20 -20 -20 -20 -20 -20 -20 -20 -20 -20
-20 -18 -20 -20 -20 -20 -20 -20 -20 -20 -20 -20 -20 -20 -20 -20 -20 -20 -20 -20 -20 -20 -20 -20 -20 -20 -20 -20 -20 -20 -20 -20 -20 -20 -20 -20 -20 -20 -20 -20 -20 -20 -20 -20 -20 -20 -20 -20 -20 -20 -20 -20 -20 -20
-20 -20 -20 -20 -20 -20 -20 -20 -20 -20 -20 -20 -20 -20 -20 -20 -20 -20 -20 -20 -20 -20 -20 -20 -20 -20 -20 -20 -20 -20 -20 -20 -20 -20 -20 -20 -20 -20 -20 -20 -20 -20 -20 -20 -20 -20 -20 -20 -20 -20 -20 -20 -6 -20
-20 -20 -20 -20 -20 -20 -20 -20 -20 -20 -20 -20 -20 -20 -20 -20 -20 -20 -20 -20 -20 -20 -20 -20 -20 -20 -20 -20 -20 -20 -20 -20 -20 -20 -20 -20 -20 -20 -20 -20 -20 -20 -20 -20 -20 -20 -20 -20 -20 -20 -20 -20 -20 -20
-20 -20 -20 -20 -20 -20 -20 -20 -20 -20 -20 -20 -20 -20 -20 -20 -20 -20 -20 -20 -20 -20 -20 -20 -20 -20 -20 -20 -20 -20 -20 -20 -20 -20 -20 -20 -20 -20 -20 -20 -20 -20 -20 -20 -20 -20 -20 -20 -20 -20 -20 -20 -20 -20
-20 -20 -20 -20 -20 -20 -20 -20 -20 -20 -20 -20 -20 -20 -20 -20 -20 -20 -20 -20 -20 -20 -20 -20 -20 -20 -20 -20 -20 -20 -20 -20 -20 -20 -20 -20 -20 -20 -20 -20 -20 -20 -20 -20 -20 -20 -20 -20 -20 -20 -20 -20 -20 -20
-20 -20 -20 -20 -20 -20 -20 -20 -20 -20 -20 -20 -20 -20 -20 -20 -20 -20 -20 -20 -20 -20 -20 -20 -20 -20 -20 -20 -20 -20 -20 -20 -20 -20 -20 -20 -20 -20 -20 -20 -20 -20 -20 -20 -20 -20 -4 -19 -9 -20 -20 -20 -20 -20
-20 -20 -20 -20 -20 -20 -20 -20 -20 -20 -20 -20 -20 -20 -20 -20 -20 -20 -20 -20 -20 -20 -20 -20 -20 -20 -20 -20 -20 -20 -20 -20 -20 -20 -20 -20 -20 -20 -20 -20 -20 -20 -20 -20 -20 -20 -20 -20 -20 -20 -20 -20 -20 -20
-20 -20 -20 -20 -20 -20 -20 -20 -20 -20 -20 -20 -20 -20 -20 -20 -20 -20 -20 -20 -20 -20 -20 -20 -20 -20 -20 -20 -20 -20 -20 -20 -12 -19 -20 -20 -20 -20 -20 -20 -20 -20 -20 -20 -20 -20 -20 -20 -20 -20 -20 -20 -20 -20
-20 -20 -20 -20 -20 -20 -20 -20 -20 -20 -20 -20 -20 -20 -20 -20 -20 -20 -20 -20 -20 -20 -20 -20 -20 -20 -20 -20 -20 -20 -20 -20 -20 -20 -20 -20 -20 -20 -20 -20 -20 -20 -20 -20 -20 -20 -20 -20 -20 -20 -20 -20 -20 -20